| time (UTC) | temp F | wind direction | speed MPH | gust MPH | rain 1hr in | rain 24hr in | rain mn in | humidity % | barometer mb |
| 20260506143042 | 59 | 265 | 6.0 | 10.0 | 0.00 | 0.00 | 0.00 | 72 | 1014.4 |
| 20260506142534 | 59 | 265 | 5.0 | 11.0 | 0.00 | 0.00 | 0.00 | 72 | 1014.4 |
| 20260506142034 | 59 | 265 | 8.0 | 11.0 | 0.00 | 0.00 | 0.00 | 73 | 1014.4 |
| 20260506141541 | 58 | 265 | 6.0 | 10.0 | 0.00 | 0.00 | 0.00 | 74 | 1014.4 |
| 20260506141034 | 58 | 265 | 5.0 | 10.0 | 0.00 | 0.00 | 0.00 | 74 | 1014.3 |
| 20260506140537 | 58 | 265 | 5.0 | 10.0 | 0.00 | 0.00 | 0.00 | 74 | 1014.3 |
| 20260506140046 | 58 | 265 | 5.0 | 10.0 | 0.00 | 0.00 | 0.00 | 74 | 1014.2 |
| 20260506135535 | 58 | 265 | 5.0 | 10.0 | 0.00 | 0.00 | 0.00 | 74 | 1014.1 |
| 20260506135035 | 57 | 265 | 1.0 | 9.0 | 0.00 | 0.00 | 0.00 | 75 | 1014.1 |
| 20260506134542 | 57 | 265 | 3.0 | 9.0 | 0.00 | 0.00 | 0.00 | 75 | 1014.1 |
| 20260506134038 | 57 | 0 | 0.0 | 8.0 | 0.00 | 0.00 | 0.00 | 75 | 1014.1 |
| 20260506133535 | 56 | 0 | 1.0 | 8.0 | 0.00 | 0.00 | 0.00 | 75 | 1014.0 |
| 20260506133047 | 56 | 265 | 4.0 | 7.0 | 0.00 | 0.00 | 0.00 | 75 | 1013.9 |
| 20260506132538 | 56 | 265 | 2.0 | 7.0 | 0.00 | 0.00 | 0.00 | 74 | 1013.9 |
| 20260506132035 | 56 | 265 | 3.0 | 7.0 | 0.00 | 0.00 | 0.00 | 74 | 1013.9 |
| 20260506131541 | 56 | 265 | 4.0 | 6.0 | 0.00 | 0.00 | 0.00 | 74 | 1013.9 |
| 20260506131034 | 56 | 265 | 3.0 | 7.0 | 0.00 | 0.00 | 0.00 | 74 | 1013.8 |
| 20260506130536 | 55 | 265 | 4.0 | 7.0 | 0.00 | 0.00 | 0.00 | 77 | 1013.8 |
| 20260506130046 | 53 | 265 | 2.0 | 6.0 | 0.00 | 0.00 | 0.00 | 81 | 1013.8 |
| 20260506125535 | 52 | 265 | 2.0 | 4.0 | 0.00 | 0.00 | 0.00 | 81 | 1013.7 |
| 20260506125034 | 53 | 265 | 0.0 | 4.0 | 0.00 | 0.00 | 0.00 | 79 | 1013.7 |
| 20260506124546 | 53 | 265 | 2.0 | 4.0 | 0.00 | 0.00 | 0.00 | 77 | 1013.8 |
| 20260506124040 | 54 | 265 | 0.0 | 0.0 | 0.00 | 0.00 | 0.00 | 76 | 1013.7 |
| 20260506123536 | 54 | 0 | 0.0 | 2.0 | 0.00 | 0.00 | 0.00 | 75 | 1013.6 |
| 20260506123044 | 54 | 0 | 0.0 | 2.0 | 0.00 | 0.00 | 0.00 | 74 | 1013.6 |
| 20260506122535 | 55 | 0 | 0.0 | 2.0 | 0.00 | 0.00 | 0.00 | 74 | 1013.5 |
| 20260506122035 | 55 | 265 | 0.0 | 2.0 | 0.00 | 0.00 | 0.00 | 72 | 1013.5 |
| 20260506121542 | 56 | 265 | 0.0 | 4.0 | 0.00 | 0.00 | 0.00 | 71 | 1013.4 |
| 20260506121039 | 57 | 0 | 1.0 | 8.0 | 0.00 | 0.00 | 0.00 | 71 | 1013.6 |
| 20260506120535 | 57 | 265 | 4.0 | 10.0 | 0.00 | 0.00 | 0.00 | 71 | 1013.4 |
| 20260506120050 | 57 | 265 | 7.0 | 12.0 | 0.00 | 0.00 | 0.00 | 71 | 1013.3 |
| 20260506115534 | 58 | 265 | 7.0 | 13.0 | 0.00 | 0.00 | 0.00 | 71 | 1013.3 |
| 20260506115034 | 58 | 265 | 10.0 | 13.0 | 0.00 | 0.00 | 0.00 | 70 | 1013.0 |
| 20260506114545 | 58 | 265 | 7.0 | 13.0 | 0.00 | 0.00 | 0.00 | 69 | 1012.9 |
| 20260506114036 | 59 | 265 | 8.0 | 15.0 | 0.00 | 0.00 | 0.00 | 68 | 1012.8 |
| 20260506113535 | 59 | 265 | 10.0 | 15.0 | 0.00 | 0.00 | 0.00 | 68 | 1012.8 |
| 20260506113046 | 59 | 330 | 7.0 | 13.0 | 0.00 | 0.00 | 0.00 | 68 | 1012.7 |
| 20260506112535 | 59 | 330 | 5.0 | 12.0 | 0.00 | 0.00 | 0.00 | 67 | 1012.8 |
| 20260506112039 | 59 | 330 | 5.0 | 12.0 | 0.00 | 0.00 | 0.00 | 67 | 1012.8 |
| 20260506111545 | 58 | 330 | 6.0 | 10.0 | 0.00 | 0.00 | 0.00 | 68 | 1012.8 |
| 20260506111035 | 57 | 330 | 4.0 | 9.0 | 0.00 | 0.00 | 0.00 | 69 | 1012.7 |
| 20260506110535 | 57 | 330 | 1.0 | 6.0 | 0.00 | 0.00 | 0.00 | 68 | 1012.6 |
| 20260506110045 | 56 | 330 | 1.0 | 6.0 | 0.00 | 0.00 | 0.00 | 68 | 1012.5 |
| 20260506105535 | 56 | 330 | 0.0 | 3.0 | 0.00 | 0.00 | 0.00 | 68 | 1012.4 |
| 20260506105037 | 55 | 0 | 0.0 | 3.0 | 0.00 | 0.00 | 0.00 | 68 | 1012.5 |
| 20260506104555 | 55 | 0 | 0.0 | 1.0 | 0.00 | 0.00 | 0.00 | 68 | 1012.5 |
| 20260506104034 | 55 | 0 | 0.0 | 1.0 | 0.00 | 0.00 | 0.00 | 67 | 1012.5 |
| 20260506103536 | 55 | 0 | 0.0 | 1.0 | 0.00 | 0.00 | 0.00 | 67 | 1012.4 |
| 20260506103054 | 55 | 0 | 0.0 | 1.0 | 0.00 | 0.00 | 0.00 | 66 | 1012.5 |
| 20260506102535 | 55 | 0 | 0.0 | 2.0 | 0.00 | 0.00 | 0.00 | 66 | 1012.5 |
| 20260506102036 | 55 | 330 | 0.0 | 2.0 | 0.00 | 0.00 | 0.00 | 65 | 1012.4 |
| 20260506101546 | 55 | 0 | 0.0 | 2.0 | 0.00 | 0.00 | 0.00 | 65 | 1012.3 |
| 20260506101035 | 55 | 0 | 0.0 | 2.0 | 0.00 | 0.00 | 0.00 | 66 | 1012.4 |
| 20260506100535 | 55 | 330 | 0.0 | 0.0 | 0.00 | 0.00 | 0.00 | 65 | 1012.4 |
| 20260506100045 | 55 | 0 | 0.0 | 0.0 | 0.00 | 0.00 | 0.00 | 65 | 1012.3 |
| 20260506095535 | 55 | 0 | 0.0 | 0.0 | 0.00 | 0.00 | 0.00 | 65 | 1012.3 |
| 20260506095034 | 55 | 0 | 0.0 | 0.0 | 0.00 | 0.00 | 0.00 | 64 | 1012.4 |
| 20260506094542 | 55 | 0 | 0.0 | 2.0 | 0.00 | 0.00 | 0.00 | 64 | 1012.4 |
| 20260506094038 | 55 | 0 | 0.0 | 2.0 | 0.00 | 0.00 | 0.00 | 64 | 1012.4 |
| 20260506093538 | 55 | 0 | 0.0 | 1.0 | 0.00 | 0.00 | 0.00 | 65 | 1012.4 |
| 20260506093041 | 56 | 0 | 0.0 | 0.0 | 0.00 | 0.00 | 0.00 | 65 | 1012.3 |
| 20260506092536 | 56 | 0 | 0.0 | 2.0 | 0.00 | 0.00 | 0.00 | 64 | 1012.3 |
| 20260506092035 | 56 | 0 | 0.0 | 2.0 | 0.00 | 0.00 | 0.00 | 64 | 1012.4 |
| 20260506091543 | 56 | 0 | 0.0 | 0.0 | 0.00 | 0.00 | 0.00 | 64 | 1012.3 |
| 20260506091036 | 56 | 0 | 0.0 | 1.0 | 0.00 | 0.00 | 0.00 | 64 | 1012.1 |
| 20260506090539 | 56 | 0 | 0.0 | 1.0 | 0.00 | 0.00 | 0.00 | 64 | 1012.2 |
| 20260506090055 | 56 | 0 | 0.0 | 2.0 | 0.00 | 0.00 | 0.00 | 64 | 1012.2 |
| 20260506085535 | 57 | 0 | 0.0 | 2.0 | 0.00 | 0.00 | 0.00 | 64 | 1012.0 |
| 20260506085035 | 57 | 330 | 0.0 | 2.0 | 0.00 | 0.00 | 0.00 | 63 | 1012.1 |
| 20260506084550 | 57 | 0 | 0.0 | 2.0 | 0.00 | 0.00 | 0.00 | 62 | 1012.1 |
| 20260506084035 | 58 | 0 | 0.0 | 2.0 | 0.00 | 0.00 | 0.00 | 61 | 1012.1 |
| 20260506083538 | 58 | 330 | 0.0 | 1.0 | 0.00 | 0.00 | 0.00 | 61 | 1012.0 |
| 20260506083045 | 58 | 0 | 0.0 | 1.0 | 0.00 | 0.00 | 0.00 | 61 | 1012.0 |
| 20260506082538 | 58 | 0 | 0.0 | 1.0 | 0.00 | 0.00 | 0.00 | 61 | 1012.1 |
| 20260506082035 | 58 | 0 | 0.0 | 3.0 | 0.00 | 0.00 | 0.00 | 61 | 1012.0 |
| 20260506081543 | 58 | 0 | 0.0 | 3.0 | 0.00 | 0.00 | 0.00 | 62 | 1011.9 |
| 20260506081035 | 57 | 0 | 0.0 | 2.0 | 0.00 | 0.00 | 0.00 | 62 | 1012.0 |
| 20260506080535 | 57 | 0 | 0.0 | 2.0 | 0.00 | 0.00 | 0.00 | 62 | 1012.0 |
| 20260506073042 | 57 | 330 | 0.0 | 2.0 | 0.00 | 0.00 | 0.00 | 60 | 1011.9 |
| 20260506072535 | 57 | 0 | 0.0 | 2.0 | 0.00 | 0.00 | 0.00 | 60 | 1012.1 |
| 20260506072036 | 58 | 330 | 0.0 | 2.0 | 0.00 | 0.00 | 0.00 | 60 | 1012.0 |
| 20260506071546 | 58 | 0 | 0.0 | 2.0 | 0.00 | 0.00 | 0.00 | 60 | 1012.0 |
| 20260506071035 | 58 | 0 | 0.0 | 2.0 | 0.00 | 0.00 | 0.00 | 59 | 1012.0 |
| 20260506070535 | 58 | 0 | 0.0 | 2.0 | 0.00 | 0.00 | 0.00 | 59 | 1012.0 |
| 20260506062035 | 60 | 330 | 1.0 | 2.0 | 0.00 | 0.00 | 0.00 | 54 | 1011.9 |
| 20260506061540 | 61 | 0 | 0.0 | 2.0 | 0.00 | 0.00 | 0.00 | 54 | 1011.8 |
| 20260506061036 | 60 | 0 | 0.0 | 2.0 | 0.00 | 0.00 | 0.00 | 54 | 1011.8 |
| 20260506060536 | 60 | 0 | 0.0 | 3.0 | 0.00 | 0.00 | 0.00 | 54 | 1011.7 |
| 20260506051038 | 62 | 330 | 1.0 | 3.0 | 0.00 | 0.00 | 0.00 | 53 | 1011.5 |
| 20260506050535 | 62 | 0 | 0.0 | 4.0 | 0.00 | 0.00 | 0.00 | 53 | 1011.5 |
| 20260506045035 | 64 | 0 | 1.0 | 4.0 | 0.00 | 0.00 | 0.00 | 50 | 1011.4 |
| 20260506044543 | 64 | 330 | 2.0 | 4.0 | 0.00 | 0.00 | 0.00 | 50 | 1011.3 |
| 20260506044036 | 64 | 330 | 2.0 | 4.0 | 0.00 | 0.00 | 0.00 | 50 | 1011.4 |
| 20260506043535 | 64 | 330 | 1.0 | 3.0 | 0.00 | 0.00 | 0.00 | 51 | 1011.4 |
| 20260506043042 | 64 | 330 | 0.0 | 3.0 | 0.00 | 0.00 | 0.00 | 50 | 1011.3 |
| 20260506042535 | 64 | 0 | 0.0 | 4.0 | 0.00 | 0.00 | 0.00 | 50 | 1011.3 |
| 20260506042034 | 65 | 0 | 2.0 | 4.0 | 0.00 | 0.00 | 0.00 | 50 | 1011.3 |
| 20260506041548 | 65 | 330 | 1.0 | 4.0 | 0.00 | 0.00 | 0.00 | 49 | 1011.3 |
| 20260506041035 | 65 | 330 | 1.0 | 4.0 | 0.00 | 0.00 | 0.00 | 49 | 1011.3 |
| 20260506040535 | 65 | 330 | 2.0 | 4.0 | 0.00 | 0.00 | 0.00 | 50 | 1011.3 |
| 20260506040050 | 65 | 330 | 0.0 | 3.0 | 0.00 | 0.00 | 0.00 | 51 | 1011.3 |
| 20260506035535 | 65 | 0 | 0.0 | 1.0 | 0.00 | 0.00 | 0.00 | 51 | 1011.2 |
| 20260506035039 | 65 | 0 | 0.0 | 3.0 | 0.00 | 0.00 | 0.00 | 50 | 1011.2 |
| 20260506034559 | 66 | 0 | 0.0 | 3.0 | 0.00 | 0.00 | 0.00 | 50 | 1011.0 |
| 20260506034035 | 66 | 330 | 1.0 | 3.0 | 0.00 | 0.00 | 0.00 | 49 | 1011.1 |
| 20260506033551 | 67 | 330 | 1.0 | 3.0 | 0.00 | 0.00 | 0.00 | 48 | 1011.1 |
| 20260506033045 | 67 | 0 | 1.0 | 3.0 | 0.00 | 0.00 | 0.00 | 48 | 1011.0 |
| 20260506032531 | 68 | 0 | 1.0 | 4.0 | 0.00 | 0.00 | 0.00 | 47 | 1010.9 |
| 20260506032031 | 68 | 330 | 2.0 | 4.0 | 0.00 | 0.00 | 0.00 | 46 | 1010.8 |
| 20260506031543 | 68 | 330 | 1.0 | 3.0 | 0.00 | 0.00 | 0.00 | 45 | 1010.8 |
| 20260506031033 | 69 | 0 | 0.0 | 2.0 | 0.00 | 0.00 | 0.00 | 45 | 1010.9 |
| 20260506030532 | 69 | 330 | 0.0 | 2.0 | 0.00 | 0.00 | 0.00 | 44 | 1010.7 |
| 20260506030042 | 70 | 330 | 0.0 | 2.0 | 0.00 | 0.00 | 0.00 | 43 | 1010.8 |
| 20260506025533 | 70 | 0 | 0.0 | 3.0 | 0.00 | 0.00 | 0.00 | 44 | 1010.7 |
| 20260506025032 | 71 | 0 | 0.0 | 5.0 | 0.00 | 0.00 | 0.00 | 44 | 1010.6 |
| 20260506024556 | 72 | 330 | 2.0 | 5.0 | 0.00 | 0.00 | 0.00 | 42 | 1010.6 |
| 20260506024034 | 73 | 330 | 4.0 | 5.0 | 0.00 | 0.00 | 0.00 | 39 | 1010.6 |
| 20260506023534 | 73 | 330 | 3.0 | 6.0 | 0.00 | 0.00 | 0.00 | 38 | 1010.6 |
| 20260506023046 | 74 | 330 | 4.0 | 6.0 | 0.00 | 0.00 | 0.00 | 37 | 1010.7 |
| 20260506022536 | 74 | 330 | 3.0 | 8.0 | 0.00 | 0.00 | 0.00 | 37 | 1010.6 |
| 20260506022034 | 75 | 330 | 4.0 | 8.0 | 0.00 | 0.00 | 0.00 | 36 | 1010.6 |
| 20260506021541 | 75 | 330 | 4.0 | 6.0 | 0.00 | 0.00 | 0.00 | 36 | 1010.7 |
| 20260506021029 | 75 | 330 | 4.0 | 6.0 | 0.00 | 0.00 | 0.00 | 36 | 1010.6 |
| 20260506020532 | 76 | 330 | 4.0 | 6.0 | 0.00 | 0.00 | 0.00 | 36 | 1010.6 |
| 20260506020039 | 76 | 330 | 2.0 | 8.0 | 0.00 | 0.00 | 0.00 | 35 | 1010.5 |
| 20260506015534 | 77 | 330 | 4.0 | 8.0 | 0.00 | 0.00 | 0.00 | 33 | 1010.3 |
| 20260506015034 | 77 | 330 | 4.0 | 8.0 | 0.00 | 0.00 | 0.00 | 33 | 1010.5 |
| 20260506014549 | 77 | 330 | 4.0 | 8.0 | 0.00 | 0.00 | 0.00 | 33 | 1010.6 |
| 20260506014030 | 77 | 330 | 4.0 | 8.0 | 0.00 | 0.00 | 0.00 | 32 | 1010.6 |
| 20260506013531 | 78 | 330 | 3.0 | 9.0 | 0.00 | 0.00 | 0.00 | 33 | 1010.6 |
| 20260506013101 | 78 | 330 | 1.0 | 9.0 | 0.00 | 0.00 | 0.00 | 32 | 1010.6 |
| 20260506012534 | 78 | 330 | 5.0 | 9.0 | 0.00 | 0.00 | 0.00 | 30 | 1010.6 |
| 20260506012032 | 78 | 330 | 6.0 | 9.0 | 0.00 | 0.00 | 0.00 | 31 | 1010.6 |
| 20260506011543 | 78 | 330 | 3.0 | 9.0 | 0.00 | 0.00 | 0.00 | 31 | 1010.6 |
| 20260506011030 | 78 | 330 | 5.0 | 9.0 | 0.00 | 0.00 | 0.00 | 29 | 1010.6 |
| 20260506010533 | 79 | 330 | 3.0 | 6.0 | 0.00 | 0.00 | 0.00 | 30 | 1010.7 |
| 20260506010042 | 79 | 330 | 2.0 | 6.0 | 0.00 | 0.00 | 0.00 | 31 | 1010.8 |
| 20260506005534 | 79 | 330 | 3.0 | 8.0 | 0.00 | 0.00 | 0.00 | 30 | 1010.7 |
| 20260506005032 | 79 | 330 | 4.0 | 16.0 | 0.00 | 0.00 | 0.00 | 30 | 1010.8 |
| 20260506004539 | 79 | 330 | 6.0 | 16.0 | 0.00 | 0.00 | 0.00 | 29 | 1010.8 |
| 20260506004030 | 79 | 330 | 11.0 | 16.0 | 0.00 | 0.00 | 0.00 | 28 | 1010.8 |
| 20260506003530 | 79 | 330 | 6.0 | 12.0 | 0.00 | 0.00 | 0.00 | 28 | 1010.8 |
| 20260506003039 | 79 | 330 | 6.0 | 13.0 | 0.00 | 0.00 | 0.00 | 30 | 1010.7 |
| 20260506002530 | 79 | 330 | 5.0 | 13.0 | 0.00 | 0.00 | 0.00 | 27 | 1010.6 |
| 20260506002030 | 80 | 330 | 7.0 | 13.0 | 0.00 | 0.00 | 0.00 | 27 | 1010.7 |
| 20260506001546 | 79 | 330 | 5.0 | 11.0 | 0.00 | 0.00 | 0.00 | 28 | 1010.6 |
| 20260506001033 | 79 | 330 | 4.0 | 11.0 | 0.00 | 0.00 | 0.00 | 27 | 1010.7 |
| 20260506000532 | 79 | 330 | 5.0 | 11.0 | 0.00 | 0.00 | 0.00 | 26 | 1010.8 |
| 20260506000044 | 79 | 330 | 7.0 | 12.0 | 0.00 | 0.00 | 0.00 | 27 | 1010.7 |
| 20260505235533 | 80 | 330 | 7.0 | 12.0 | 0.00 | 0.00 | 0.00 | 26 | 1010.8 |
| 20260505235033 | 79 | 330 | 3.0 | 8.0 | 0.00 | 0.00 | 0.00 | 29 | 1010.9 |
| 20260505234540 | 79 | 330 | 1.0 | 12.0 | 0.00 | 0.00 | 0.00 | 28 | 1010.9 |
| 20260505234034 | 79 | 330 | 7.0 | 14.0 | 0.00 | 0.00 | 0.00 | 28 | 1011.0 |
| 20260505233535 | 79 | 330 | 8.0 | 14.0 | 0.00 | 0.00 | 0.00 | 28 | 1010.9 |
| 20260505233037 | 79 | 330 | 5.0 | 15.0 | 0.00 | 0.00 | 0.00 | 28 | 1011.0 |
| 20260505232533 | 79 | 330 | 9.0 | 15.0 | 0.00 | 0.00 | 0.00 | 28 | 1011.1 |
| 20260505232033 | 79 | 326 | 6.0 | 11.0 | 0.00 | 0.00 | 0.00 | 31 | 1011.0 |
| 20260505231545 | 79 | 326 | 2.0 | 14.0 | 0.00 | 0.00 | 0.00 | 32 | 1011.2 |
| 20260505231033 | 79 | 326 | 6.0 | 15.0 | 0.00 | 0.00 | 0.00 | 28 | 1011.2 |
| 20260505230531 | 79 | 326 | 8.0 | 15.0 | 0.00 | 0.00 | 0.00 | 29 | 1011.3 |
| 20260505230056 | 79 | 326 | 8.0 | 14.0 | 0.00 | 0.00 | 0.00 | 29 | 1011.4 |
| 20260505225531 | 79 | 326 | 4.0 | 12.0 | 0.00 | 0.00 | 0.00 | 29 | 1011.2 |
| 20260505225031 | 79 | 326 | 4.0 | 13.0 | 0.00 | 0.00 | 0.00 | 30 | 1011.5 |
| 20260505224541 | 79 | 326 | 6.0 | 14.0 | 0.00 | 0.00 | 0.00 | 31 | 1011.5 |
| 20260505224038 | 79 | 326 | 8.0 | 14.0 | 0.00 | 0.00 | 0.00 | 30 | 1011.5 |
| 20260505223530 | 79 | 326 | 8.0 | 14.0 | 0.00 | 0.00 | 0.00 | 29 | 1011.5 |
| 20260505223054 | 79 | 326 | 3.0 | 14.0 | 0.00 | 0.00 | 0.00 | 33 | 1011.5 |
| 20260505222534 | 79 | 326 | 7.0 | 14.0 | 0.00 | 0.00 | 0.00 | 30 | 1011.5 |
| 20260505222032 | 79 | 319 | 7.0 | 14.0 | 0.00 | 0.00 | 0.00 | 32 | 1011.6 |
| 20260505221542 | 78 | 319 | 9.0 | 14.0 | 0.00 | 0.00 | 0.00 | 32 | 1011.6 |
| 20260505221035 | 78 | 319 | 7.0 | 17.0 | 0.00 | 0.00 | 0.00 | 32 | 1011.5 |
| 20260505220533 | 78 | 319 | 10.0 | 17.0 | 0.00 | 0.00 | 0.00 | 30 | 1011.7 |
| 20260505220048 | 79 | 319 | 13.0 | 17.0 | 0.00 | 0.00 | 0.00 | 31 | 1011.7 |
| 20260505215534 | 78 | 295 | 4.0 | 15.0 | 0.00 | 0.00 | 0.00 | 33 | 1011.7 |
| 20260505215034 | 79 | 295 | 9.0 | 17.0 | 0.00 | 0.00 | 0.00 | 32 | 1011.6 |
| 20260505214544 | 79 | 295 | 12.0 | 17.0 | 0.00 | 0.00 | 0.00 | 33 | 1011.7 |
| 20260505214034 | 78 | 279 | 7.0 | 12.0 | 0.00 | 0.00 | 0.00 | 34 | 1011.7 |
| 20260505213533 | 78 | 279 | 3.0 | 12.0 | 0.00 | 0.00 | 0.00 | 34 | 1011.8 |
| 20260505213052 | 78 | 0 | 6.0 | 12.0 | 0.00 | 0.00 | 0.00 | 32 | 1011.8 |
| 20260505212538 | 78 | 279 | 4.0 | 12.0 | 0.00 | 0.00 | 0.00 | 32 | 1011.8 |
| 20260505212030 | 78 | 279 | 6.0 | 14.0 | 0.00 | 0.00 | 0.00 | 31 | 1011.9 |
| 20260505211544 | 77 | 279 | 10.0 | 14.0 | 0.00 | 0.00 | 0.00 | 31 | 1011.9 |
| 20260505211036 | 77 | 270 | 5.0 | 13.0 | 0.00 | 0.00 | 0.00 | 32 | 1011.9 |
| 20260505210538 | 77 | 270 | 9.0 | 13.0 | 0.00 | 0.00 | 0.00 | 30 | 1011.9 |
| 20260505210223 | 77 | 270 | 4.0 | 15.0 | 0.00 | 0.00 | 0.00 | 34 | 1011.9 |
| 20260505204033 | 76 | 270 | 9.0 | 14.0 | 0.00 | 0.00 | 0.00 | 44 | 1012.0 |
| 20260505203555 | 76 | 270 | 7.0 | 14.0 | 0.00 | 0.00 | 0.00 | 44 | 1012.0 |
| 20260505203201 | 76 | 270 | 6.0 | 14.0 | 0.00 | 0.00 | 0.00 | 43 | 1012.1 |
| 20260505202535 | 76 | 0 | 8.0 | 14.0 | 0.00 | 0.00 | 0.00 | 44 | 1012.2 |
| 20260505202035 | 75 | 270 | 7.0 | 14.0 | 0.00 | 0.00 | 0.00 | 46 | 1012.1 |
| 20260505201543 | 76 | 270 | 7.0 | 11.0 | 0.00 | 0.00 | 0.00 | 45 | 1012.1 |
| 20260505201036 | 76 | 270 | 3.0 | 8.0 | 0.00 | 0.00 | 0.00 | 47 | 1012.0 |
| 20260505200535 | 76 | 270 | 3.0 | 10.0 | 0.00 | 0.00 | 0.00 | 47 | 1012.1 |
| 20260505200047 | 76 | 270 | 2.0 | 10.0 | 0.00 | 0.00 | 0.00 | 47 | 1012.0 |
| 20260505195538 | 76 | 270 | 6.0 | 10.0 | 0.00 | 0.00 | 0.00 | 47 | 1012.1 |
| 20260505195038 | 76 | 270 | 4.0 | 7.0 | 0.00 | 0.00 | 0.00 | 46 | 1012.1 |
| 20260505194604 | 76 | 0 | 2.0 | 10.0 | 0.00 | 0.00 | 0.00 | 48 | 1012.1 |
| 20260505194036 | 75 | 270 | 4.0 | 10.0 | 0.00 | 0.00 | 0.00 | 48 | 1012.2 |
| 20260505193536 | 75 | 270 | 5.0 | 8.0 | 0.00 | 0.00 | 0.00 | 48 | 1012.1 |
| 20260505193044 | 75 | 0 | 1.0 | 8.0 | 0.00 | 0.00 | 0.00 | 49 | 1012.2 |
| 20260505192643 | 74 | 270 | 3.0 | 8.0 | 0.00 | 0.00 | 0.00 | 50 | 1012.2 |
| 20260505192032 | 74 | 270 | 4.0 | 8.0 | 0.00 | 0.00 | 0.00 | 50 | 1012.3 |
| 20260505191547 | 74 | 270 | 1.0 | 8.0 | 0.00 | 0.00 | 0.00 | 51 | 1012.3 |
| 20260505191033 | 73 | 0 | 3.0 | 8.0 | 0.00 | 0.00 | 0.00 | 50 | 1012.3 |
| 20260505190534 | 73 | 270 | 1.0 | 6.0 | 0.00 | 0.00 | 0.00 | 51 | 1012.3 |
| 20260505190043 | 73 | 270 | 2.0 | 7.0 | 0.00 | 0.00 | 0.00 | 51 | 1012.3 |
| 20260505185533 | 73 | 0 | 3.0 | 8.0 | 0.00 | 0.00 | 0.00 | 52 | 1012.4 |
| 20260505185031 | 73 | 270 | 0.0 | 8.0 | 0.00 | 0.00 | 0.00 | 53 | 1012.4 |
| 20260505184540 | 73 | 270 | 1.0 | 7.0 | 0.00 | 0.00 | 0.00 | 53 | 1012.5 |
| 20260505184034 | 72 | 270 | 2.0 | 7.0 | 0.00 | 0.00 | 0.00 | 53 | 1012.5 |
| 20260505183532 | 72 | 270 | 4.0 | 7.0 | 0.00 | 0.00 | 0.00 | 52 | 1012.5 |
| 20260505183048 | 72 | 270 | 3.0 | 7.0 | 0.00 | 0.00 | 0.00 | 53 | 1012.5 |
| 20260505182533 | 72 | 270 | 3.0 | 7.0 | 0.00 | 0.00 | 0.00 | 53 | 1012.6 |
| 20260505182034 | 71 | 270 | 2.0 | 6.0 | 0.00 | 0.00 | 0.00 | 55 | 1012.5 |
| 20260505181541 | 70 | 270 | 2.0 | 8.0 | 0.00 | 0.00 | 0.00 | 55 | 1012.5 |
| 20260505181032 | 70 | 270 | 4.0 | 8.0 | 0.00 | 0.00 | 0.00 | 56 | 1012.4 |
| 20260505180531 | 70 | 270 | 4.0 | 9.0 | 0.00 | 0.00 | 0.00 | 55 | 1012.5 |
| 20260505180049 | 70 | 0 | 2.0 | 9.0 | 0.00 | 0.00 | 0.00 | 55 | 1012.5 |
| 20260505175532 | 70 | 270 | 2.0 | 9.0 | 0.00 | 0.00 | 0.00 | 56 | 1012.6 |
| 20260505175031 | 71 | 270 | 3.0 | 7.0 | 0.00 | 0.00 | 0.00 | 55 | 1012.5 |
| 20260505174551 | 70 | 270 | 2.0 | 6.0 | 0.00 | 0.00 | 0.00 | 56 | 1012.5 |
| 20260505174031 | 70 | 270 | 1.0 | 4.0 | 0.00 | 0.00 | 0.00 | 56 | 1012.5 |
| 20260505173738 | 70 | 270 | 2.0 | 8.0 | 0.00 | 0.00 | 0.00 | 56 | 1012.5 |
| 20260505173415 | 69 | 270 | 2.0 | 8.0 | 0.00 | 0.00 | 0.00 | 57 | 1012.4 |
| 20260505172031 | 69 | 270 | 3.0 | 7.0 | 0.00 | 0.00 | 0.00 | 59 | 1012.5 |
| 20260505171541 | 69 | 270 | 1.0 | 4.0 | 0.00 | 0.00 | 0.00 | 59 | 1012.5 |
| 20260505171034 | 68 | 270 | 1.0 | 6.0 | 0.00 | 0.00 | 0.00 | 60 | 1012.4 |
| 20260505170531 | 68 | 0 | 0.0 | 7.0 | 0.00 | 0.00 | 0.00 | 60 | 1012.4 |
| 20260505170045 | 67 | 270 | 2.0 | 10.0 | 0.00 | 0.00 | 0.00 | 61 | 1012.3 |
| 20260505165534 | 67 | 270 | 4.0 | 10.0 | 0.00 | 0.00 | 0.00 | 60 | 1012.2 |
| 20260505165213 | 67 | 270 | 6.0 | 9.0 | 0.00 | 0.00 | 0.00 | 61 | 1012.4 |
| 20260505163048 | 67 | 270 | 3.0 | 7.0 | 0.00 | 0.00 | 0.00 | 62 | 1012.0 |
| 20260505162530 | 67 | 270 | 1.0 | 7.0 | 0.00 | 0.00 | 0.00 | 61 | 1012.2 |
| 20260505162119 | 67 | 270 | 3.0 | 7.0 | 0.00 | 0.00 | 0.00 | 61 | 1012.1 |
| 20260505161548 | 66 | 270 | 4.0 | 8.0 | 0.00 | 0.00 | 0.00 | 62 | 1012.1 |
| 20260505161031 | 66 | 270 | 3.0 | 12.0 | 0.00 | 0.00 | 0.00 | 61 | 1012.0 |
| 20260505160533 | 66 | 270 | 4.0 | 12.0 | 0.00 | 0.00 | 0.00 | 61 | 1011.9 |
| 20260505153104 | 64 | 270 | 2.0 | 6.0 | 0.00 | 0.00 | 0.00 | 63 | 1012.0 |
| 20260505152531 | 64 | 270 | 1.0 | 6.0 | 0.00 | 0.00 | 0.00 | 64 | 1011.9 |
| 20260505152031 | 64 | 270 | 3.0 | 6.0 | 0.00 | 0.00 | 0.00 | 65 | 1011.7 |
| 20260505151550 | 64 | 270 | 2.0 | 6.0 | 0.00 | 0.00 | 0.00 | 65 | 1011.7 |
| 20260505151034 | 64 | 270 | 2.0 | 8.0 | 0.00 | 0.00 | 0.00 | 63 | 1011.7 |
| 20260505150534 | 63 | 270 | 3.0 | 8.0 | 0.00 | 0.00 | 0.00 | 62 | 1011.8 |